Location: Unspecified
(34.4950°S, 58.5160°W)
Time: 08:35:49
(UTC+00:00)

SL-08 R/B - Pass Details

Date: 15 December 2025
Orbit: 668 x 729 km, 98.5° (Epoch: 18 January)

Event Time Altitude Azimuth Distance (km) Brightness Sun altitude
Rises 23:21:25 0° 9° (N) 3,127 6.3 -4.1°
Reaches altitude 10° 23:23:42 10° 7° (N) 2,209 5.5 -4.5°
Maximum altitude 23:28:32 73° 282° (WNW) 756 3.7 -5.3°
Drops below altitude 10° 23:33:23 10° 197° (SSW) 2,204 6.7 -6.1°
Sets 23:35:39 0° 195° (SSW) 3,120 7.5 -6.5°
